TimeCDT,TemperatureF,Dew PointF,Humidity,Sea Level PressureIn,VisibilityMPH,Wind Direction,Wind SpeedMPH,Gust SpeedMPH,PrecipitationIn,Events,Conditions,WindDirDegrees,DateUTC
12:57 AM,74.5,73.6,97,30.00,10.0,NE,4.6,-,0.00,,Light Drizzle,40,2013-08-17 05:57:00
1:59 AM,74.1,73.2,97,30.00,10.0,ENE,5.8,-,N/A,,Overcast,60,2013-08-17 06:59:00
2:48 AM,73.4,73.4,100,29.97,10.0,NE,6.9,-,N/A,,Overcast,40,2013-08-17 07:48:00
2:58 AM,73.9,73.0,97,29.98,10.0,NE,6.9,-,N/A,,Overcast,40,2013-08-17 07:58:00
3:15 AM,73.4,73.4,100,29.96,2.0,NE,6.9,-,N/A,Rain,Light Rain,40,2013-08-17 08:15:00
3:32 AM,73.4,73.4,100,29.96,4.0,NNE,4.6,-,N/A,Rain,Light Rain,30,2013-08-17 08:32:00
3:57 AM,73.6,72.7,97,29.98,7.0,NNE,6.9,-,0.11,Rain,Light Rain,30,2013-08-17 08:57:00
4:12 AM,73.4,71.6,94,29.97,10.0,NE,8.1,-,N/A,Rain,Light Rain,40,2013-08-17 09:12:00
4:33 AM,73.4,71.6,94,29.96,5.0,NNE,6.9,-,N/A,Rain,Light Rain,20,2013-08-17 09:33:00
4:56 AM,73.6,72.3,96,29.97,2.0,NE,8.1,-,0.06,Rain,Rain,50,2013-08-17 09:56:00
5:10 AM,73.4,73.4,100,29.96,2.0,East,10.4,-,N/A,Rain,Light Rain,80,2013-08-17 10:10:00
5:35 AM,73.4,71.6,94,29.97,2.5,ENE,9.2,-,N/A,Rain,Rain,60,2013-08-17 10:35:00
5:59 AM,73.2,72.1,96,29.98,2.0,ENE,9.2,-,0.68,Rain,Heavy Rain,60,2013-08-17 10:59:00
6:49 AM,73.4,71.6,94,29.95,1.0,NE,12.7,-,N/A,Rain,Heavy Rain,50,2013-08-17 11:49:00
6:58 AM,73.0,71.8,96,29.97,0.8,NE,15.0,-,0.86,Rain-Thunderstorm,Heavy Thunderstorms and Rain,40,2013-08-17 11:58:00
7:31 AM,73.4,71.6,94,29.97,2.0,NNE,6.9,-,N/A,Rain,Heavy Rain,20,2013-08-17 12:31:00
7:57 AM,73.0,71.6,95,29.99,2.5,WNW,3.5,-,0.50,Rain-Thunderstorm,Heavy Thunderstorms and Rain,290,2013-08-17 12:57:00
8:07 AM,73.4,71.6,94,29.98,3.0,NE,3.5,-,N/A,Rain,Heavy Rain,50,2013-08-17 13:07:00
8:36 AM,73.4,71.6,94,29.99,7.0,NE,8.1,-,N/A,Rain,Light Rain,50,2013-08-17 13:36:00
8:55 AM,73.6,72.3,96,30.01,10.0,NNE,5.8,-,N/A,Rain,Light Rain,30,2013-08-17 13:55:00
9:39 AM,73.4,71.6,94,30.01,10.0,NE,6.9,-,N/A,Rain,Light Rain,50,2013-08-17 14:39:00
9:55 AM,73.4,71.6,94,30.03,10.0,NE,8.1,-,0.02,Rain,Light Rain,40,2013-08-17 14:55:00
10:23 AM,73.4,71.6,94,30.00,10.0,NNE,6.9,-,N/A,,Overcast,30,2013-08-17 15:23:00
10:34 AM,73.4,71.6,94,30.01,10.0,NE,6.9,-,N/A,Rain,Light Rain,50,2013-08-17 15:34:00
10:55 AM,73.0,71.8,96,30.04,6.0,ENE,3.5,-,0.06,Rain,Heavy Rain,70,2013-08-17 15:55:00
11:28 AM,73.4,71.6,94,30.04,3.0,East,5.8,-,N/A,Rain,Heavy Rain,90,2013-08-17 16:28:00
11:55 AM,73.0,72.1,97,30.04,3.0,ENE,9.2,-,0.30,Rain,Heavy Rain,70,2013-08-17 16:55:00
12:16 PM,73.4,71.6,94,30.02,1.8,East,12.7,-,N/A,Rain,Heavy Rain,90,2013-08-17 17:16:00
12:46 PM,73.4,71.6,94,30.01,2.0,East,16.1,-,N/A,Rain,Heavy Rain,80,2013-08-17 17:46:00
12:55 PM,72.9,71.2,95,30.03,3.0,East,12.7,-,0.37,Rain,Rain,80,2013-08-17 17:55:00
1:39 PM,73.4,71.6,94,30.02,2.5,SSE,11.5,-,N/A,Rain,Rain,160,2013-08-17 18:39:00
1:55 PM,73.4,72.1,96,30.05,1.5,South,9.2,-,0.33,Rain,Rain,170,2013-08-17 18:55:00
2:17 PM,73.4,71.6,94,30.01,2.5,SSW,4.6,-,N/A,Rain,Rain,200,2013-08-17 19:17:00
2:34 PM,71.6,69.8,94,30.01,3.0,South,10.4,-,N/A,Rain,Light Rain,180,2013-08-17 19:34:00
2:55 PM,71.6,70.2,95,30.04,2.0,South,5.8,-,0.35,Rain,Rain,180,2013-08-17 19:55:00
3:16 PM,71.6,69.8,94,30.02,3.0,South,1.2,-,N/A,Rain,Rain,190,2013-08-17 20:16:00
3:33 PM,73.4,71.6,94,30.02,3.0,South,5.8,-,N/A,Rain,Rain,180,2013-08-17 20:33:00
3:55 PM,74.3,72.5,94,30.03,6.0,SW,8.1,19.6,0.19,Rain,Light Rain,220,2013-08-17 20:55:00
4:33 PM,73.4,71.6,94,30.01,10.0,South,11.5,-,N/A,Rain,Light Rain,190,2013-08-17 21:33:00
4:55 PM,74.3,72.0,92,30.02,6.0,South,9.2,-,0.07,Rain,Light Rain,190,2013-08-17 21:55:00
5:55 PM,74.3,67.3,79,30.02,7.0,West,5.8,-,0.02,Rain,Light Rain,260,2013-08-17 22:55:00
6:55 PM,72.5,68.4,87,30.02,7.0,SSE,3.5,-,0.00,,Light Drizzle,160,2013-08-17 23:55:00
7:39 PM,73.4,68.0,83,30.03,10.0,SSE,4.6,-,N/A,,Overcast,160,2013-08-18 00:39:00
7:49 PM,73.4,68.0,83,30.04,7.0,SE,1.2,-,N/A,,Light Drizzle,130,2013-08-18 00:49:00
7:55 PM,74.1,67.5,80,30.04,7.0,ESE,4.6,-,0.00,Rain,Light Rain,120,2013-08-18 00:55:00
8:55 PM,74.5,73.0,95,30.04,7.0,ENE,3.5,-,0.00,,Light Drizzle,60,2013-08-18 01:55:00
9:01 PM,75.2,73.4,94,30.03,7.0,ENE,4.6,-,N/A,Rain,Light Rain,60,2013-08-18 02:01:00
9:49 PM,73.4,73.4,100,30.04,7.0,NE,5.8,-,N/A,Rain,Light Rain,40,2013-08-18 02:49:00
9:55 PM,73.4,72.5,97,30.05,7.0,NE,5.8,-,0.01,Rain,Light Rain,40,2013-08-18 02:55:00
10:21 PM,73.4,71.6,94,30.04,10.0,NE,5.8,-,N/A,,Overcast,40,2013-08-18 03:21:00
10:55 PM,72.5,71.6,97,30.04,10.0,East,5.8,-,0.00,,Mostly Cloudy,80,2013-08-18 03:55:00
11:55 PM,72.1,71.2,97,30.01,10.0,ENE,8.1,-,N/A,,Mostly Cloudy,70,2013-08-18 04:55:00